Location: ???????
(55.4362°N, 38.1183°E)
Time: 13:13:25
(UTC+00:00)

Cosmos 2219 Rocket - Pass Details

Date: 29 October 2021
Orbit: 826 x 848 km, 71.0° (Epoch: 01 December)

Event Time Altitude Azimuth Distance (km) Brightness Sun altitude
Exits shadow 02:02:41 41° 255° (WSW) 1,204 2.5 -20.8°
Maximum altitude 02:02:53 41° 249° (WSW) 1,201 2.5 -20.7°
Drops below altitude 10° 02:08:10 10° 181° (S) 2,465 4.6 -20.0°
Sets 02:10:43 0° 174° (S) 3,398 5.4 -19.6°
